Location: Dresden
(51.0483°N, 13.7137°E)
Time: 00:17:25
(UTC+01:00)

ISS - Pass Details

Date: 17 November 2017
Orbit: 402 x 407 km, 51.6° (Epoch: 19 November)

Event Time Altitude Azimuth Distance (km) Brightness Sun altitude
Exits shadow 04:48:26 13° 157° (SSE) 1,297 -1.0 -24.3°
Drops below altitude 10° 04:48:53 10° 153° (SSE) 1,450 -0.7 -24.2°
Sets 04:51:08 0° 141° (SE) 2,306 0.6 -23.9°
